Temperature
8 9 9 9 10 9 8 9 10 11 12 14 15 14 13 13 14 14 15 15 16 15 15 15 15 15 15 14 14 13 12 11 10 9 7 5 4 3 2 1 -0 -1 -1 -2
8 9 8 7 9 10 9 9 9 10 11 13 13 12 12 13 13 13 14 15 15 15 15 15 15 15 14 14 14 13 12 11 10 8 7 5 4 3 1 1 -0 -1 -1 -2
7 8 8 9 10 10 9 8 8 9 11 11 10 10 12 13 13 13 14 14 14 14 14 14 14 14 14 13 13 12 12 11 10 8 7 5 4 2 1 1 -0 -1 -1 -2
5 8 8 11 11 10 10 9 8 9 10 10 10 12 13 14 13 13 13 13 13 13 13 13 13 13 13 13 12 12 11 11 10 8 7 5 3 2 1 1 -0 -1 -1 -2
5 6 7 9 10 9 9 9 10 9 9 10 11 10 12 14 13 12 12 12 12 12 12 12 12 12 12 12 12 11 11 11 10 8 6 5 3 3 1 0 -1 -1 -1 -2
4 5 7 10 11 11 10 9 11 10 10 10 9 7 9 12 11 11 11 11 11 11 11 11 12 11 11 11 11 11 10 10 8 7 5 4 3 2 1 0 -1 -2 -2 -2
4 4 7 8 9 10 10 11 12 12 11 10 8 9 10 10 10 10 10 10 10 10 10 10 10 10 10 10 10 10 8 8 7 6 5 4 2 1 0 -1 -1 -2 -2 -2
4 4 7 8 8 9 10 12 12 11 11 10 10 10 9 9 9 9 9 9 9 9 9 9 9 9 9 9 9 8 7 7 6 5 4 2 1 0 -1 -1 -2 -2 -3 -3
5 8 10 10 11 12 12 11 10 10 10 9 9 8 8 8 8 8 8 8 8 8 8 9 9 8 8 8 7 7 7 6 5 4 3 2 1 -0 -1 -2 -2 -2 -3 -3
5 6 8 10 11 11 11 10 10 9 9 8 7 7 7 7 7 7 7 7 7 7 7 8 8 7 7 7 6 6 6 5 4 3 2 0 -1 -1 -2 -2 -2 -2 -3 -3
6 7 8 9 10 10 9 9 8 8 7 7 6 6 6 6 6 6 6 6 6 6 6 6 6 6 6 6 5 5 4 4 3 1 0 -1 -1 -1 -2 -2 -1 -2 -2 -3
8 9 8 8 9 8 8 7 7 6 6 6 6 5 5 5 5 5 5 5 5 5 5 5 5 5 5 5 4 4 3 3 1 0 -1 -1 -2 -2 -3 -3 -3 -3 -3 -3
8 8 8 8 7 7 6 6 6 5 5 5 5 5 4 4 4 4 5 5 4 4 4 4 4 4 4 4 4 3 2 2 0 -1 -2 -2 -2 -3 -3 -3 -4 -4 -4 -4
7 7 6 6 5 5 5 5 5 5 5 5 4 4 4 4 4 4 4 4 4 3 3 3 3 4 3 3 3 2 2 1 -1 -2 -3 -3 -3 -3 -3 -3 -4 -4 -4 -4
6 5 5 5 5 5 4 4 4 4 4 4 4 4 3 3 3 3 3 3 3 3 3 3 3 3 3 2 2 2 1 -0 -1 -2 -3 -4 -4 -4 -4 -4 -4 -4 -5 -5
4 4 4 4 4 4 4 3 3 3 3 3 3 3 2 2 2 2 2 2 2 2 2 2 2 2 2 2 1 1 0 -1 -2 -3 -4 -5 -5 -5 -5 -5 -5 -5 -5 -5
4 4 4 3 3 3 3 3 2 2 2 2 2 2 2 1 2 2 2 2 1 2 2 2 1 1 1 1 1 0 -0 -1 -2 -4 -4 -5 -6 -6 -5 -5 -5 -5 -5 -5
4 3 3 3 3 2 2 2 2 2 2 1 1 1 1 1 1 1 1 1 1 2 2 1 1 1 1 1 0 -0 -1 -2 -3 -4 -5 -5 -6 -6 -6 -6 -5 -5 -5 -6
3 3 3 3 2 2 2 2 2 1 1 1 1 0 1 1 1 1 0 0 1 1 1 1 1 1 1 0 0 -0 -1 -2 -3 -4 -5 -6 -7 -7 -7 -6 -6 -6 -6 -6
3 2 2 2 2 2 1 1 1 1 1 1 0 0 0 1 1 0 0 0 1 1 0 0 0 0 0 -0 -0 -1 -2 -3 -4 -5 -5 -6 -7 -7 -7 -6 -6 -6 -6 -6
2 2 2 1 1 1 1 1 1 0 0 0 0 0 0 0 0 -0 -0 -0 1 0 0 0 -0 -0 -0 -1 -1 -2 -2 -3 -4 -5 -6 -6 -7 -7 -7 -7 -6 -6 -6 -6
1 1 1 1 0 0 0 0 0 0 0 0 0 -0 -0 -0 -0 -0 -0 -0 0 -0 -0 -0 -0 -0 -1 -1 -1 -2 -3 -4 -4 -5 -6 -6 -7 -7 -7 -7 -6 -6 -6 -6
1 1 0 0 -0 -0 0 0 0 -0 -0 -0 -0 -0 -0 -1 -1 -1 -1 -0 -0 -0 -0 -0 -0 -1 -1 -1 -2 -2 -3 -4 -5 -5 -6 -6 -7 -7 -7 -7 -7 -6 -6 -6
0 0 -0 -0 -0 -0 -0 -0 -0 -1 -1 -1 -0 -0 -1 -1 -1 -1 -1 -1 -0 -0 -0 -0 -1 -1 -1 -1 -2 -3 -3 -4 -5 -5 -6 -7 -7 -7 -7 -7 -7 -7 -6 -6
-0 -1 -1 -1 -1 -1 -1 -1 -1 -1 -1 -1 -1 -1 -1 -1 -1 -1 -1 -1 -0 -0 -1 -0 -1 -1 -1 -2 -2 -3 -4 -4 -5 -6 -6 -7 -7 -7 -7 -7 -7 -7 -6 -6
-1 -1 -1 -1 -1 -1 -1 -2 -2 -2 -2 -2 -2 -1 -1 -1 -1 -1 -1 -1 -1 -1 -1 -1 -1 -1 -2 -2 -3 -3 -4 -5 -5 -6 -6 -7 -7 -7 -7 -7 -7 -6 -6 -6
-1 -1 -1 -1 -1 -1 -2 -2 -3 -3 -3 -3 -3 -2 -2 -2 -2 -1 -1 -1 -1 -1 -1 -1 -1 -2 -2 -3 -3 -4 -4 -5 -6 -6 -6 -7 -7 -7 -7 -7 -6 -6 -6 -6
Wind_Speed
10 11 6 9 16 12 14 13 14 19 22 30 27 21 17 13 12 13 14 13 12 11 11 10 10 11 12 14 14 15 17 19 22 19 18 17 17 17 16 16 16 14 13 13
7 7 6 9 20 20 17 13 16 22 24 26 19 11 11 12 11 12 13 14 13 13 12 12 11 11 12 14 14 15 18 21 18 17 17 18 18 17 16 15 14 13 14 13
6 5 6 10 15 12 9 10 11 13 14 11 11 12 12 12 12 12 13 14 14 14 13 13 12 12 13 13 12 15 18 18 17 17 18 19 18 17 17 16 15 14 14 13
4 3 10 11 5 8 10 11 13 12 13 13 13 13 12 11 8 11 12 13 15 14 14 13 12 11 10 9 11 14 16 17 17 18 19 17 17 18 17 14 14 14 14 13
3 6 11 10 10 7 8 9 9 11 13 11 9 8 7 7 6 10 13 15 15 15 15 14 14 11 9 9 10 13 17 18 18 18 18 17 18 18 16 13 13 13 11 12
5 6 10 11 4 2 2 8 5 4 6 9 8 10 10 9 12 15 16 15 14 14 13 14 14 9 8 11 11 16 18 16 15 16 18 18 18 16 13 12 13 12 11 11
8 9 12 10 2 3 3 8 5 4 8 9 7 9 12 15 15 15 16 16 15 14 13 13 12 8 10 12 15 16 12 11 13 15 17 16 14 12 12 12 11 11 11 10
7 7 11 6 6 7 9 6 7 10 10 11 12 13 13 14 14 14 14 14 14 13 15 14 11 8 11 15 15 10 9 11 13 14 14 12 12 12 12 12 11 11 9 9
12 12 6 5 9 8 6 10 11 10 12 13 13 12 13 12 13 13 13 14 13 13 15 15 11 8 13 16 11 9 9 12 11 12 12 12 13 13 12 11 10 10 9 9
9 12 11 11 10 10 11 12 12 12 12 10 11 12 13 12 12 13 13 14 12 13 15 16 15 12 13 14 10 9 10 10 9 10 11 11 11 12 12 12 11 11 10 9
14 14 12 10 9 10 10 10 10 10 8 8 9 11 11 12 13 12 12 11 11 12 14 17 16 15 13 11 9 9 10 9 8 10 10 11 11 11 13 12 13 13 11 9
22 17 15 16 10 9 9 9 8 8 9 9 8 10 11 12 11 12 13 13 13 13 14 16 16 17 14 10 8 9 9 8 8 8 9 9 9 9 16 15 18 19 16 12
20 16 14 13 8 6 6 7 7 8 8 10 10 10 11 11 10 12 14 14 14 15 16 16 16 17 14 10 8 9 10 8 7 8 9 10 10 11 9 12 17 17 18 17
10 9 10 7 6 6 6 7 7 8 9 9 10 11 12 12 12 15 16 15 15 16 16 15 15 16 14 10 9 9 9 11 9 8 8 9 10 10 9 10 9 9 12 17
6 4 5 5 5 6 6 7 9 10 11 11 11 12 14 15 16 17 18 16 15 15 16 15 16 17 12 9 9 9 8 7 7 7 7 8 8 8 8 9 9 7 5 8
4 4 3 3 5 7 7 8 10 11 13 13 14 15 16 16 17 17 17 15 15 17 17 16 17 16 12 10 9 8 7 12 9 7 7 8 8 8 9 9 9 8 8 8
2 2 3 5 7 8 9 10 11 13 14 15 17 17 17 17 17 17 17 15 14 16 16 16 16 14 12 10 9 7 6 7 11 8 7 8 8 9 8 8 8 8 8 9
3 4 4 6 7 10 12 12 13 14 15 17 17 16 16 17 18 19 18 17 16 17 16 14 13 12 11 9 8 6 5 5 5 6 7 8 8 8 8 8 9 9 6 8
3 5 7 9 10 10 12 14 14 14 15 15 16 16 17 17 17 17 16 16 17 18 15 12 18 14 11 11 10 5 5 6 6 6 6 10 10 8 8 8 8 8 8 7
6 8 10 11 11 11 13 14 15 15 15 14 15 17 17 17 16 16 16 15 14 13 13 16 14 12 11 10 10 5 5 6 6 6 7 7 8 8 8 8 8 8 8 8
10 11 12 12 13 13 13 15 16 17 16 15 16 17 18 18 16 15 15 16 15 13 13 18 12 10 9 10 10 5 5 6 6 7 7 8 8 8 8 8 8 8 8 7
10 11 13 13 14 15 14 13 14 16 17 16 16 16 16 17 16 15 14 13 14 18 14 11 10 13 14 13 6 5 6 6 6 6 7 7 8 8 8 8 8 8 7 7
11 12 13 14 15 16 16 15 14 14 15 16 17 17 17 16 14 14 15 12 11 18 15 11 15 20 20 10 5 5 6 6 6 7 7 7 7 7 7 8 7 7 7 7
13 13 13 14 14 14 16 16 14 13 14 15 15 15 15 14 13 11 11 17 20 22 14 15 20 20 17 6 4 5 5 5 6 6 6 6 6 6 7 7 7 6 7 7
13 13 13 14 14 13 14 14 14 14 14 12 14 14 12 10 12 14 13 14 19 20 12 14 18 17 10 5 5 4 4 5 6 6 6 6 6 7 7 7 7 7 7 7
13 13 13 13 13 12 12 11 12 12 12 14 13 12 11 11 12 13 12 13 14 17 13 9 9 9 6 5 4 4 3 4 6 6 6 7 7 7 7 7 8 7 7 6
12 11 10 11 10 10 9 10 12 13 12 13 15 14 13 13 12 13 13 12 12 11 9 8 7 6 6 5 3 3 3 3 4 5 6 6 6 6 7 8 7 6 6 7
Wind_Direction
255 269 271 253 260 235 216 224 240 262 266 276 284 295 301 301 302 306 307 307 302 295 290 280 264 246 235 232 222 212 212 216 219 216 213 210 207 206 204 205 208 209 213 219
274 268 254 260 263 258 244 236 243 261 272 272 284 296 297 300 306 309 311 311 307 302 296 288 275 259 243 236 224 211 216 221 220 214 210 209 208 205 203 205 206 206 212 217
270 298 319 272 252 237 221 212 211 239 254 286 311 310 305 306 308 304 306 306 304 300 293 288 279 262 250 241 222 215 221 223 218 213 212 211 207 203 204 204 203 208 213 216
277 350 245 246 245 218 229 244 227 245 268 286 284 288 285 278 278 300 307 307 305 300 295 292 285 274 259 240 223 221 224 225 220 214 213 208 205 206 206 202 204 208 212 215
212 252 270 287 275 217 214 272 242 239 267 283 296 309 294 276 286 298 299 296 294 291 291 291 290 284 267 249 232 228 230 228 221 215 213 207 207 207 203 199 203 208 210 213
195 223 254 251 259 147 139 283 266 216 290 304 330 326 301 300 310 307 302 300 298 299 298 296 295 289 266 257 242 239 237 232 222 214 212 210 209 205 198 196 202 204 212 213
219 237 262 259 264 129 219 257 314 319 312 306 288 268 282 298 302 297 298 301 303 304 303 299 299 292 271 264 254 251 245 233 222 215 213 211 205 198 191 193 194 200 210 216
198 221 256 236 156 198 237 293 309 307 301 295 288 286 293 300 302 305 307 308 310 311 309 306 304 290 278 273 270 262 241 231 223 214 209 206 198 194 189 189 193 200 208 220
204 228 251 197 213 247 283 293 294 294 294 295 296 298 305 307 309 310 309 311 313 311 309 309 305 288 281 284 282 264 242 233 223 211 205 199 194 190 187 189 195 200 205 218
256 261 262 268 270 273 274 279 287 291 294 298 299 303 309 311 311 312 311 312 313 314 313 312 311 300 283 287 283 261 250 239 220 207 203 199 197 193 191 193 196 199 204 214
264 275 285 262 263 278 287 294 300 303 302 305 305 305 305 307 308 307 306 306 308 307 306 305 307 304 297 291 280 263 253 240 220 208 202 201 202 201 199 201 198 197 202 201
268 276 282 291 298 298 300 305 307 310 310 309 305 300 303 304 301 302 304 305 306 305 305 306 308 305 302 294 275 260 257 241 222 209 202 199 200 207 215 209 211 211 208 203
263 280 282 292 307 314 305 305 305 302 299 302 303 299 300 298 297 300 302 303 304 304 302 303 305 303 302 296 277 257 252 244 223 211 205 201 199 199 201 211 216 217 215 214
273 284 287 297 303 312 309 305 303 302 298 293 293 296 298 296 298 303 304 302 302 302 301 300 302 301 300 295 280 264 255 247 232 214 206 203 202 200 194 191 196 208 216 217
278 267 267 288 303 312 313 314 319 316 312 308 304 303 302 303 303 303 302 302 301 301 301 302 303 303 304 297 283 269 257 246 230 212 204 202 199 196 193 191 192 189 184 209
294 311 306 309 314 314 317 318 313 306 305 303 303 301 299 297 296 297 299 300 302 303 304 303 300 299 302 297 287 274 257 250 237 214 201 197 194 195 195 192 190 190 194 195
263 300 311 314 312 308 303 297 292 294 296 297 297 298 299 300 301 301 301 300 297 296 295 293 293 295 296 291 283 275 261 251 242 226 201 195 194 196 194 192 192 194 197 193
215 235 255 272 285 293 295 294 292 294 294 294 296 298 299 300 300 300 301 303 303 300 295 290 289 295 293 289 281 267 254 241 227 217 201 198 197 194 192 194 194 193 187 193
290 285 284 282 282 285 287 291 292 291 291 294 295 297 297 295 294 295 299 302 302 302 300 295 303 306 298 295 293 262 249 238 229 218 204 206 205 195 193 195 194 191 185 184
294 291 289 287 285 284 288 291 294 296 297 297 298 298 298 298 298 299 300 297 291 286 289 296 300 296 294 293 291 261 242 234 227 216 204 200 198 194 194 194 190 188 187 186
291 289 289 289 290 288 288 293 297 299 300 298 296 296 296 297 298 298 299 301 296 293 296 300 302 296 296 293 288 258 238 232 224 214 206 201 198 194 192 191 188 188 188 186
285 286 289 292 294 296 295 294 293 294 297 297 295 295 297 299 300 298 289 286 291 299 305 299 298 297 301 298 276 252 237 229 219 209 204 200 196 193 192 189 187 186 184 182
286 288 291 294 294 296 297 294 291 292 293 294 296 296 296 295 297 298 300 296 298 303 307 298 300 304 306 302 272 250 236 225 215 207 202 197 193 191 189 186 185 180 177 176
290 291 291 291 293 295 296 296 294 292 289 290 289 287 288 294 296 288 285 295 302 303 303 300 304 307 310 299 271 252 236 223 211 201 194 189 186 184 181 179 177 174 171 168
285 287 289 292 294 294 292 295 298 296 294 294 292 289 286 283 287 295 297 297 299 304 302 303 306 308 308 289 273 254 234 218 203 190 186 183 183 181 178 175 173 169 167 169
283 286 286 283 283 287 290 293 295 297 299 299 299 297 296 295 292 293 296 295 294 299 301 298 299 302 298 286 272 252 232 221 210 193 181 180 178 175 173 172 165 165 164 164
282 282 285 287 287 283 284 288 292 295 296 296 298 300 300 300 300 298 298 300 300 299 297 296 295 293 290 280 264 244 218 196 183 174 172 173 172 171 169 165 164 160 157 158
Height
1537 1532 1534 1532 1526 1524 1526 1520 1518 1498 1490 1474 1465 1465 1462 1457 1453 1449 1446 1443 1440 1437 1434 1431 1427 1423 1419 1415 1412 1409 1406 1403 1401 1402 1403 1404 1406 1408 1410 1412 1413 1415 1416 1417
1536 1529 1530 1529 1515 1510 1510 1509 1504 1494 1484 1466 1464 1462 1458 1454 1451 1448 1444 1441 1438 1434 1430 1426 1421 1417 1412 1408 1404 1400 1396 1392 1392 1391 1391 1392 1394 1397 1399 1401 1403 1405 1406 1408
1536 1529 1526 1520 1500 1497 1498 1495 1493 1488 1474 1463 1463 1459 1456 1452 1449 1447 1443 1439 1435 1430 1425 1420 1415 1410 1405 1400 1396 1391 1386 1383 1381 1380 1380 1381 1383 1386 1388 1390 1393 1395 1397 1399
1539 1530 1526 1498 1486 1486 1486 1482 1479 1474 1468 1464 1462 1457 1453 1451 1448 1444 1440 1435 1430 1424 1419 1413 1408 1403 1397 1391 1386 1381 1377 1374 1371 1369 1369 1371 1373 1375 1377 1380 1383 1385 1388 1390
1539 1532 1514 1498 1483 1481 1483 1477 1468 1468 1465 1461 1458 1453 1449 1448 1445 1441 1436 1430 1424 1418 1412 1405 1400 1394 1388 1382 1377 1372 1367 1364 1361 1360 1359 1360 1361 1364 1368 1371 1374 1377 1380 1382
1535 1532 1515 1488 1477 1475 1478 1477 1463 1463 1461 1458 1455 1455 1445 1442 1438 1433 1428 1422 1416 1409 1403 1397 1392 1386 1379 1373 1368 1362 1358 1355 1353 1351 1350 1350 1352 1356 1359 1362 1366 1369 1372 1374
1528 1524 1500 1480 1476 1477 1482 1472 1462 1459 1458 1455 1453 1451 1442 1435 1430 1426 1420 1414 1408 1402 1396 1390 1384 1377 1370 1365 1359 1355 1350 1346 1343 1342 1341 1342 1345 1348 1351 1355 1358 1361 1364 1367
1521 1520 1498 1471 1475 1475 1468 1461 1459 1456 1454 1450 1445 1440 1434 1429 1423 1418 1412 1407 1401 1394 1388 1383 1377 1370 1362 1357 1352 1346 1341 1337 1334 1333 1333 1334 1337 1340 1344 1347 1350 1353 1356 1359
1497 1483 1471 1468 1467 1464 1463 1459 1455 1452 1448 1445 1438 1433 1428 1423 1418 1412 1407 1401 1394 1388 1381 1375 1370 1363 1355 1349 1343 1337 1332 1328 1326 1325 1325 1326 1328 1331 1335 1338 1342 1345 1348 1351
1483 1470 1466 1464 1462 1461 1459 1455 1450 1447 1443 1438 1433 1428 1423 1418 1412 1407 1401 1395 1388 1381 1374 1368 1362 1356 1349 1342 1335 1330 1325 1321 1318 1317 1317 1318 1320 1323 1326 1329 1333 1336 1340 1343
1473 1464 1460 1456 1457 1455 1452 1449 1445 1441 1438 1433 1428 1423 1418 1413 1407 1401 1395 1389 1383 1376 1368 1361 1355 1349 1342 1335 1328 1322 1317 1313 1311 1310 1310 1311 1313 1316 1319 1322 1326 1330 1333 1337
1461 1457 1458 1451 1452 1449 1445 1442 1439 1435 1431 1428 1424 1419 1413 1407 1402 1395 1389 1382 1376 1369 1362 1355 1348 1341 1335 1329 1322 1316 1310 1307 1304 1303 1303 1304 1307 1310 1313 1317 1321 1324 1327 1331
1455 1452 1451 1446 1445 1443 1440 1437 1434 1431 1427 1423 1419 1414 1408 1401 1395 1389 1382 1375 1369 1362 1355 1348 1341 1335 1329 1322 1316 1310 1305 1301 1298 1297 1297 1298 1300 1303 1306 1311 1315 1318 1321 1324
1450 1448 1443 1442 1440 1438 1436 1433 1430 1427 1423 1419 1413 1408 1402 1395 1388 1382 1375 1369 1362 1355 1348 1341 1334 1328 1322 1316 1310 1304 1299 1296 1293 1291 1291 1292 1294 1297 1300 1304 1308 1311 1315 1318
1443 1442 1440 1439 1437 1434 1432 1429 1425 1421 1417 1412 1407 1401 1395 1388 1381 1375 1368 1362 1355 1348 1341 1334 1328 1321 1316 1310 1304 1298 1293 1290 1288 1286 1286 1287 1289 1292 1295 1298 1302 1306 1309 1313
1439 1438 1437 1435 1433 1431 1428 1424 1420 1415 1411 1405 1400 1394 1388 1381 1374 1367 1361 1355 1348 1340 1334 1327 1321 1315 1310 1304 1298 1292 1288 1284 1282 1281 1281 1282 1284 1287 1290 1293 1296 1300 1303 1306
1435 1434 1433 1432 1430 1427 1424 1420 1416 1410 1405 1399 1393 1386 1380 1373 1366 1359 1353 1348 1342 1335 1328 1322 1315 1309 1304 1298 1292 1287 1282 1279 1277 1276 1275 1277 1279 1281 1285 1288 1291 1294 1298 1301
1433 1433 1432 1429 1426 1422 1418 1414 1409 1404 1398 1391 1385 1379 1372 1365 1358 1351 1345 1339 1333 1326 1322 1316 1309 1303 1298 1292 1287 1282 1278 1274 1272 1271 1271 1272 1274 1276 1280 1283 1286 1290 1293 1296
1432 1430 1428 1425 1422 1417 1412 1407 1401 1396 1390 1384 1377 1371 1365 1359 1352 1345 1339 1332 1325 1318 1313 1309 1303 1297 1292 1287 1281 1276 1273 1270 1268 1267 1267 1268 1270 1272 1275 1278 1282 1285 1289 1292
1428 1426 1423 1419 1415 1411 1405 1400 1394 1388 1382 1377 1370 1363 1356 1351 1345 1338 1332 1326 1320 1314 1307 1302 1296 1291 1285 1280 1276 1271 1268 1265 1263 1262 1262 1263 1265 1267 1270 1274 1278 1281 1284 1287
1424 1420 1417 1412 1408 1403 1398 1393 1386 1379 1374 1369 1362 1356 1349 1343 1338 1332 1325 1317 1312 1308 1302 1296 1290 1285 1279 1275 1270 1266 1263 1261 1259 1258 1258 1259 1261 1264 1267 1270 1274 1277 1280 1283
1418 1414 1409 1405 1399 1394 1389 1384 1378 1372 1366 1360 1355 1349 1342 1335 1330 1324 1319 1313 1306 1301 1295 1290 1284 1279 1274 1269 1265 1261 1258 1256 1255 1254 1254 1255 1257 1260 1263 1266 1270 1273 1277 1280
1410 1406 1401 1397 1391 1384 1379 1375 1369 1364 1358 1352 1347 1341 1336 1330 1324 1318 1310 1306 1301 1295 1290 1284 1279 1274 1269 1264 1260 1256 1254 1252 1250 1250 1250 1252 1254 1256 1260 1263 1267 1270 1273 1277
1402 1398 1393 1388 1382 1376 1370 1364 1360 1355 1350 1345 1340 1335 1329 1322 1316 1312 1306 1299 1294 1289 1283 1278 1273 1268 1263 1259 1255 1252 1249 1247 1246 1246 1247 1248 1251 1254 1257 1260 1264 1267 1271 1274
1393 1389 1384 1379 1373 1368 1362 1357 1351 1346 1342 1336 1332 1327 1322 1317 1311 1304 1299 1293 1288 1283 1277 1272 1268 1263 1258 1254 1250 1247 1245 1244 1243 1243 1244 1246 1248 1251 1255 1258 1261 1265 1269 1272
1384 1379 1375 1371 1366 1361 1355 1350 1344 1339 1334 1328 1323 1319 1314 1309 1303 1298 1292 1287 1282 1277 1272 1267 1262 1258 1253 1249 1246 1244 1242 1241 1240 1241 1242 1244 1246 1249 1253 1256 1260 1263 1267 1270
1374 1370 1366 1361 1357 1353 1348 1343 1338 1332 1328 1322 1316 1311 1306 1301 1296 1291 1286 1280 1276 1271 1266 1262 1257 1253 1249 1246 1243 1241 1239 1238 1238 1239 1240 1243 1245 1248 1251 1255 1258 1262 1266 1269